Sanborn, NY

4:46 AM EST on December 08, 2016 (GMT -0500)
Niagara Falls International

Weather History for KIAG - July, 2013

Change the Weather History Date:

Saturday, July 13, 2013

  Actual Average Record
Temperature  
Mean Temperature 72 °F -  
Max Temperature 84 °F 78 °F 97 °F (2005)
Min Temperature 61 °F 59 °F 55 °F (2002)
Cooling Degree Days 8    
Growing Degree Days 22 (Base 50)    
Moisture  
Dew Point 63 °F    
Average Humidity 74    
Maximum Humidity 90    
Minimum Humidity 47    
Precipitation  
Precipitation 0.00 in - - ()
Sea Level Pressure  
Sea Level Pressure 30.20 in    
Wind  
Wind Speed 4 mph (NE)    
Max Wind Speed 12 mph    
Max Gust Speed 18 mph    
Visibility 10 miles    
Events      
Averages and records for this station are not official NWS values.
T = Trace of Precipitation, MM = Missing Value Source: NWS Daily Summary

Daily Weather History Graph

Daily Weather History Graph

Search for Another Location

Airport or City:

Trip Planner

Search our weather history database for the weather conditions in past years. The results will help you decide how hot, cold, wet, or windy it might be!

Date:

Astronomy

Jul. 13, 2013 Rise Set
Actual Time 5:48 AM EDT 8:54 PM EDT
Civil Twilight 5:14 AM EDT 9:28 PM EDT
Nautical Twilight 4:29 AM EDT 10:12 PM EDT
Astronomical Twilight 3:37 AM EDT 11:04 PM EDT
Moon 11:12 AM EDT (7/13) 11:23 PM EDT (7/13)
Length of Visible Light 16h 14m
Length of Day
15h 05m
Waxing Crescent, 25% of the Moon is Illuminated
Jul 13
Waxing Crescent
Jul 15
First Quarter
Jul 22
Full
Jul 29
Last Quarter
Aug 6
New

Hourly Weather History & Observations

Time (EDT) Temp. Heat Index Dew Point Humidity Pressure Visibility Wind Dir Wind Speed Gust Speed Precip Events Conditions
12:53 AM 63.0 °F - 59.0 °F 87% 30.17 in 10.0 mi Calm Calm - N/A   Clear
1:53 AM 62.1 °F - 59.0 °F 90% 30.17 in 10.0 mi Calm Calm - N/A   Clear
2:53 AM 62.1 °F - 57.9 °F 86% 30.17 in 10.0 mi Calm Calm - N/A   Clear
3:53 AM 62.1 °F - 57.9 °F 86% 30.17 in 10.0 mi Calm Calm - N/A   Clear
4:53 AM 62.1 °F - 57.9 °F 86% 30.17 in 10.0 mi Calm Calm - N/A   Clear
5:53 AM 61.0 °F - 57.0 °F 87% 30.19 in 10.0 mi NNW 3.5 mph - N/A   Clear
6:53 AM 64.0 °F - 61.0 °F 90% 30.20 in 10.0 mi NNE 5.8 mph - N/A   Clear
6:59 AM 64.4 °F - 60.8 °F 88% 30.21 in 10.0 mi North 4.6 mph - N/A   Mostly Cloudy
7:53 AM 68.0 °F - 64.0 °F 87% 30.21 in 10.0 mi North 8.1 mph - N/A   Mostly Cloudy
8:09 AM 69.8 °F - 64.4 °F 83% 30.22 in 10.0 mi NNE 10.4 mph - N/A   Mostly Cloudy
8:53 AM 70.0 °F - 64.0 °F 81% 30.22 in 10.0 mi NNE 9.2 mph - N/A   Mostly Cloudy
9:53 AM 73.9 °F - 64.0 °F 71% 30.22 in 10.0 mi NE 5.8 mph - N/A   Mostly Cloudy
10:53 AM 75.9 °F - 64.0 °F 67% 30.21 in 10.0 mi East 8.1 mph - N/A   Scattered Clouds
11:53 AM 80.1 °F 81.5 °F 63.0 °F 56% 30.21 in 10.0 mi NE 10.4 mph - N/A   Scattered Clouds
12:53 PM 82.0 °F 83.1 °F 63.0 °F 52% 30.19 in 10.0 mi NE 6.9 mph - N/A   Scattered Clouds
1:53 PM 82.0 °F 83.4 °F 64.0 °F 54% 30.19 in 10.0 mi East 8.1 mph 18.4 mph N/A   Scattered Clouds
2:53 PM 84.0 °F 84.5 °F 62.1 °F 47% 30.19 in 10.0 mi ENE 10.4 mph - N/A   Scattered Clouds
3:53 PM 82.0 °F 83.1 °F 63.0 °F 52% 30.19 in 10.0 mi ENE 9.2 mph - N/A   Scattered Clouds
4:53 PM 82.0 °F 84.1 °F 66.0 °F 58% 30.19 in 10.0 mi NNE 9.2 mph - N/A   Scattered Clouds
5:53 PM 79.0 °F - 66.0 °F 64% 30.19 in 10.0 mi NNE 11.5 mph - N/A   Scattered Clouds
6:53 PM 78.1 °F - 66.0 °F 66% 30.20 in 10.0 mi NNE 8.1 mph - N/A   Mostly Cloudy
7:53 PM 78.1 °F - 64.9 °F 64% 30.20 in 10.0 mi ENE 8.1 mph - N/A   Mostly Cloudy
8:53 PM 75.0 °F - 66.0 °F 73% 30.20 in 10.0 mi East 5.8 mph - N/A   Scattered Clouds
9:53 PM 73.9 °F - 66.0 °F 76% 30.22 in 10.0 mi Calm Calm - N/A   Scattered Clouds
10:53 PM 73.0 °F - 66.9 °F 81% 30.23 in 10.0 mi ESE 5.8 mph - N/A   Scattered Clouds
11:53 PM 72.0 °F - 66.9 °F 84% 30.23 in 10.0 mi Calm Calm - N/A   Clear